St. Johns River Weather Center

Moon Phase Calendar



St. Johns River Water Level
Online Cameras

 


      

Current Conditions in East Palatka
10/18/2021 12:46:11 PM

76°F
Feels Like 76
Clouds
Humidity
60%
Pressure
30.12"
Wind
7.7 mph (ENE)
Dew Point
61°F
UV Index
0/10 (Low)
Visibility
6 mi

Hourly Forecast

Date & Time Mon, Oct 18
12:00 PM
Mon, Oct 18
1:00 PM
Mon, Oct 18
2:00 PM
Mon, Oct 18
3:00 PM
Mon, Oct 18
4:00 PM
Mon, Oct 18
5:00 PM
Mon, Oct 18
6:00 PM
Mon, Oct 18
7:00 PM
Mon, Oct 18
8:00 PM
Mon, Oct 18
9:00 PM
Mon, Oct 18
10:00 PM
Mon, Oct 18
11:00 PM
Tue, Oct 19
12:00 AM
Tue, Oct 19
1:00 AM
Tue, Oct 19
2:00 AM
Tue, Oct 19
3:00 AM
Tue, Oct 19
4:00 AM
Tue, Oct 19
5:00 AM
Tue, Oct 19
6:00 AM
Tue, Oct 19
7:00 AM
Tue, Oct 19
8:00 AM
Tue, Oct 19
9:00 AM
Tue, Oct 19
10:00 AM
Tue, Oct 19
11:00 AM
Tue, Oct 19
12:00 PM
Tue, Oct 19
1:00 PM
Tue, Oct 19
2:00 PM
Tue, Oct 19
3:00 PM
Tue, Oct 19
4:00 PM
Tue, Oct 19
5:00 PM
Tue, Oct 19
6:00 PM
Tue, Oct 19
7:00 PM
Tue, Oct 19
8:00 PM
Tue, Oct 19
9:00 PM
Tue, Oct 19
10:00 PM
Tue, Oct 19
11:00 PM
Wed, Oct 20
12:00 AM
Wed, Oct 20
1:00 AM
Wed, Oct 20
2:00 AM
Wed, Oct 20
3:00 AM
Wed, Oct 20
4:00 AM
Wed, Oct 20
5:00 AM
Wed, Oct 20
6:00 AM
Wed, Oct 20
7:00 AM
Wed, Oct 20
8:00 AM
Wed, Oct 20
9:00 AM
Wed, Oct 20
10:00 AM
Wed, Oct 20
11:00 AM
Condition
Clouds

Clouds

Clouds

Clouds

Clouds

Clouds

Clouds

Clouds

Clouds

Clouds

Clouds

Clouds

Clouds

Clouds

Clouds

Clouds

Clouds

Clouds

Clouds

Clouds

Clouds

Clouds

Clouds

Clouds

Clouds

Clouds

Clouds

Clear

Clear

Clear

Clear

Clear

Clear

Clouds

Clouds

Clouds

Clouds

Clouds

Clouds

Clouds

Clouds

Clouds

Clouds

Clouds

Clouds

Clouds

Clouds

Clouds
Temperature 76°F76°F76°F76°F76°F75°F72°F68°F66°F66°F65°F65°F65°F64°F64°F64°F64°F63°F64°F64°F64°F69°F75°F78°F80°F81°F81°F80°F80°F78°F75°F70°F68°F68°F67°F67°F67°F66°F66°F66°F65°F65°F65°F65°F65°F71°F76°F79°F
Feels Like 76°F76°F76°F76°F75°F74°F71°F67°F66°F65°F64°F64°F64°F64°F64°F63°F63°F63°F63°F64°F64°F69°F75°F78°F80°F80°F81°F80°F80°F78°F75°F70°F68°F67°F67°F66°F66°F66°F65°F65°F65°F65°F65°F64°F65°F71°F76°F79°F
Cloudiness 100%100%100%100%100%100%100%100%100%100%100%100%100%100%100%87%85%68%74%77%78%96%98%77%58%47%39%0%0%1%1%1%1%17%11%23%42%49%50%57%74%82%86%87%78%41%52%56%
Visibility 6 mi6 mi6 mi6 mi6 mi6 mi6 mi6 mi6 mi6 mi6 mi6 mi6 mi6 mi6 mi6 mi6 mi6 mi6 mi6 mi6 mi6 mi6 mi6 mi6 mi6 mi6 mi6 mi6 mi6 mi6 mi6 mi6 mi6 mi6 mi6 mi6 mi6 mi6 mi6 mi6 mi6 mi6 mi6 mi6 mi6 mi6 mi6 mi
Precipitation 0%0%0%0%0%0%0%0%0%0%0%0%0%0%0%0%0%0%0%0%0%0%0%0%0%0%0%0%0%0%0%0%0%0%0%0%0%0%0%0%0%0%0%0%0%0%0%0%
Humidity 56%60%56%52%51%51%55%63%67%69%71%72%73%74%75%75%76%76%75%74%75%65%52%46%43%41%41%41%42%45%52%63%68%70%71%71%71%72%73%74%74%75%75%76%76%65%54%47%
Dew Point 59°F61°F59°F57°F56°F55°F55°F55°F55°F55°F55°F55°F55°F56°F56°F56°F56°F56°F56°F56°F56°F57°F57°F56°F55°F55°F55°F55°F55°F55°F57°F57°F57°F57°F57°F57°F57°F57°F57°F57°F57°F57°F57°F57°F57°F58°F58°F57°F
Pressure 30.12"30.12"30.12"30.12"30.09"30.09"30.09"30.12"30.12"30.15"30.15"30.15"30.15"30.15"30.15"30.15"30.15"30.15"30.15"30.15"30.18"30.18"30.21"30.21"30.18"30.18"30.15"30.15"30.15"30.15"30.15"30.18"30.21"30.21"30.21"30.21"30.21"30.21"30.21"30.21"30.21"30.18"30.21"30.21"30.24"30.24"30.27"30.27"
Wind Speed 6 mph7.7 mph7.7 mph7.4 mph7.6 mph7.4 mph6.3 mph4.7 mph4 mph3.9 mph4 mph3.8 mph3.8 mph3.3 mph3.7 mph3.8 mph3.6 mph3.7 mph3.1 mph3.4 mph3.4 mph3.3 mph6.3 mph7.6 mph8.4 mph8.9 mph9.1 mph8.8 mph8.6 mph8.1 mph6.9 mph5 mph3.7 mph4 mph3.6 mph3.3 mph3.2 mph3.2 mph2.8 mph2.4 mph2.3 mph2.3 mph2.2 mph2.2 mph1.7 mph1.9 mph2.9 mph4.3 mph
Wind
Direction
57°
ENE
62°
ENE
58°
ENE
57°
ENE
53°
NE
52°
NE
47°
NE
36°
NE
30°
NNE
24°
NNE
30°
NNE
30°
NNE
32°
NNE
18°
NNE
24°
NNE
35°
NE
36°
NE
50°
NE
30°
NNE
25°
NNE
29°
NNE
43°
NE
75°
ENE
81°
E
80°
E
80°
E
83°
E
84°
E
84°
E
86°
E
83°
E
75°
ENE
70°
ENE
73°
ENE
74°
ENE
75°
ENE
82°
E
96°
E
97°
E
103°
ESE
71°
ENE
78°
ENE
62°
ENE
71°
ENE
50°
NE
69°
ENE
87°
E
103°
ESE

Daily Forecast

Date High Low Precip. Humidity
Today
Oct 18

Clouds
76 °F
57 °F
0%
60%
Tuesday
Oct 19

Clouds
81 °F
63 °F
0%
41%
Wednesday
Oct 20

Clouds
83 °F
65 °F
0%
40%
Thursday
Oct 21

Clouds
82 °F
68 °F
17%
49%
Friday
Oct 22

Clouds
87 °F
69 °F
6%
44%
Saturday
Oct 23

Clear
87 °F
69 °F
2%
43%
Sunday
Oct 24

Clear
86 °F
70 °F
9%
46%
Monday
Oct 25

Rain
84 °F
71 °F
48%
60%
Tuesday
Oct 26

Clear
89 °F
71 °F
0%
41%
Wednesday
Oct 27

Clouds
88 °F
70 °F
0%
42%
Thursday
Oct 28

Clouds
88 °F
69 °F
22%
35%
Friday
Oct 29

Rain
80 °F
68 °F
98%
82%
Saturday
Oct 30

Clouds
74 °F
58 °F
0%
36%
Sunday
Oct 31

Clouds
78 °F
60 °F
0%
41%
Monday
Nov 1

Clouds
80 °F
66 °F
0%
48%
Tuesday
Nov 2

Clouds
78 °F
68 °F
0%
52%

Temperature 8-14 Day Outlook



Precipitation 8-14 Day Outlook




Quick Links
St. Johns River News
St. Johns River Photos
St. Johns River Videos




About Us
Contact Us
Site Map
Search Site
Advertise With Us
   
StJohns.USLakes.info
THE ST. JOHNS RIVER WEBSITE

Copyright 2021, Lakes Online
Privacy    |    Legal